Weather History for Ben-Gurion International Airport, Israel

Change the Weather History Date:

Saturday, October 5, 2013

  Actual Average Record
Temperature  
Mean Temperature 73 °F -  
Max Temperature 79 °F 80 °F - ()
Min Temperature 67 °F 63 °F - ()
Cooling Degree Days 8    
Growing Degree Days 23 (Base 50)    
Moisture  
Dew Point 52 °F    
Average Humidity 48    
Maximum Humidity 60    
Minimum Humidity 34    
Precipitation  
Precipitation 0.00 in - - ()
Sea Level Pressure  
Sea Level Pressure 29.95 in    
Wind  
Wind Speed 7 mph ()    
Max Wind Speed 14 mph    
Max Gust Speed -    
Visibility 6.2 miles    
Events      
T = Trace of Precipitation, MM = Missing Value Source: Averaged Metar Reports

Daily Weather History Graph

Daily Weather History Graph

Search for Another Location

Airport:

Trip Planner

Search our weather history database for the weather conditions in past years. The results will help you decide how hot, cold, wet, or windy it might be!

Date:

Astronomy

Oct. 05, 2013 Rise Set
Actual Time 6:36 AM IDT 6:20 PM IDT
Civil Twilight 6:12 AM IDT 6:44 PM IDT
Nautical Twilight 5:44 AM IDT 7:12 PM IDT
Astronomical Twilight 5:15 AM IDT 7:41 PM IDT
Moon 6:50 AM IDT (10/5) 6:30 PM IDT (10/5)
Length of Visible Light 12h 32m
Length of Day
11h 43m
New Moon, 0% of the Moon is Illuminated
Oct 5
New Moon
Oct 12
First Quarter
Oct 19
Full
Oct 27
Last Quarter
Nov 3
New

Hourly Weather History & Observations

Time (IDT) Temp. Dew Point Humidity Pressure Visibility Wind Dir Wind Speed Gust Speed Precip Events Conditions
12:20 AM 71.6 °F 55.4 °F 57% 29.98 in 6.2 mi Variable 3.5 mph - N/A   Scattered Clouds
12:50 AM 69.8 °F 55.4 °F 60% 29.98 in 6.2 mi South 4.6 mph - N/A   Partly Cloudy
1:20 AM 69.8 °F 53.6 °F 56% 29.95 in 6.2 mi South 5.8 mph - N/A   Partly Cloudy
1:50 AM 68.0 °F 53.6 °F 60% 29.95 in 6.2 mi SSE 5.8 mph - N/A   Scattered Clouds
2:20 AM 68.0 °F 53.6 °F 60% 29.95 in - SSE 5.8 mph - N/A   Clear
2:50 AM 69.8 °F 53.6 °F 56% 29.95 in 6.2 mi SSE 4.6 mph - N/A   Partly Cloudy
3:00 AM 69 °F 53 °F 46% 29.96 in 6 mi SSE 5.8 mph - -   Partly Cloudy
3:20 AM 69.8 °F 51.8 °F 53% 29.95 in 6.2 mi South 6.9 mph - N/A   Scattered Clouds
3:50 AM 69.8 °F 51.8 °F 53% 29.95 in 6.2 mi South 6.9 mph - N/A   Scattered Clouds
4:20 AM 68.0 °F 53.6 °F 60% 29.95 in 6.2 mi South 5.8 mph - N/A   Scattered Clouds
4:50 AM 68.0 °F 53.6 °F 60% 29.95 in - South 6.9 mph - N/A   Clear
5:20 AM 68.0 °F 51.8 °F 56% 29.95 in - South 6.9 mph - N/A   Clear
5:50 AM 68.0 °F 51.8 °F 56% 29.95 in 6.2 mi Variable 3.5 mph - N/A   Scattered Clouds
6:20 AM 68.0 °F 51.8 °F 56% 29.95 in 6.2 mi Variable 2.3 mph - N/A   Mostly Cloudy
6:50 AM 68.0 °F 51.8 °F 56% 29.95 in 6.2 mi Variable 3.5 mph - N/A   Scattered Clouds
7:20 AM 68.0 °F 51.8 °F 56% 29.95 in 6.2 mi Variable 3.5 mph - N/A   Scattered Clouds
7:50 AM 69.8 °F 51.8 °F 53% 29.98 in 6.2 mi South 4.6 mph - N/A   Mostly Cloudy
8:20 AM 73.4 °F 53.6 °F 50% 29.98 in 6.2 mi Variable 3.5 mph - N/A   Mostly Cloudy
8:50 AM 73.4 °F 53.6 °F 50% 29.98 in 6.2 mi Variable 2.3 mph - N/A   Scattered Clouds
9:00 AM 74 °F 53 °F 37% 29.97 in 6 mi 2.3 mph - -   Partly Cloudy
9:20 AM 73.4 °F 51.8 °F 47% 29.98 in 6.2 mi NW 9.2 mph - N/A   Scattered Clouds
9:50 AM 75.2 °F 51.8 °F 44% 29.98 in 6.2 mi NW 8.1 mph - N/A   Scattered Clouds
10:20 AM 77.0 °F 51.8 °F 41% 29.98 in 6.2 mi WNW 8.1 mph - N/A   Scattered Clouds
10:50 AM 77.0 °F 51.8 °F 41% 29.98 in 6.2 mi West 11.5 mph - N/A   Scattered Clouds
11:20 AM 75.2 °F 51.8 °F 44% 29.98 in 6.2 mi WNW 10.4 mph - N/A   Scattered Clouds
11:50 AM 77.0 °F 50.0 °F 39% 29.98 in 6.2 mi WNW 13.8 mph - N/A   Scattered Clouds
12:20 PM 77.0 °F 50.0 °F 39% 29.95 in 6.2 mi West 13.8 mph - N/A   Scattered Clouds
12:50 PM 77.0 °F 50.0 °F 39% 29.95 in 6.2 mi West 10.4 mph - N/A   Scattered Clouds
1:20 PM 77.0 °F 51.8 °F 41% 29.95 in 6.2 mi WNW 13.8 mph - N/A   Scattered Clouds
1:50 PM 77.0 °F 51.8 °F 41% 29.95 in 6.2 mi West 12.7 mph - N/A   Scattered Clouds
2:20 PM 78.8 °F 48.2 °F 34% 29.92 in 6.2 mi West 11.5 mph - N/A   Scattered Clouds
2:50 PM 77.0 °F 50.0 °F 39% 29.92 in 6.2 mi WNW 12.7 mph - N/A   Scattered Clouds
3:00 PM - 51 °F % 29.93 in 6 mi West 11.5 mph - -   Partly Cloudy
3:20 PM 77.0 °F 50.0 °F 39% 29.92 in 6.2 mi WNW 12.7 mph - N/A   Scattered Clouds
3:50 PM 77.0 °F 51.8 °F 41% 29.92 in 6.2 mi NW 10.4 mph - N/A   Scattered Clouds
4:20 PM 75.2 °F 51.8 °F 44% 29.92 in 6.2 mi NW 12.7 mph - N/A   Scattered Clouds
4:50 PM 75.2 °F 51.8 °F 44% 29.92 in 6.2 mi WNW 12.7 mph - N/A   Scattered Clouds
5:20 PM 75.2 °F 53.6 °F 47% 29.92 in 6.2 mi NW 12.7 mph - N/A   Scattered Clouds
5:50 PM 75.2 °F 53.6 °F 47% 29.92 in 6.2 mi NW 11.5 mph - N/A   Scattered Clouds
6:20 PM 73.4 °F 55.4 °F 53% 29.92 in 6.2 mi NW 11.5 mph - N/A   Scattered Clouds
6:50 PM 73.4 °F 55.4 °F 53% 29.92 in 6.2 mi NW 11.5 mph - N/A   Scattered Clouds
7:20 PM 73.4 °F 53.6 °F 50% 29.92 in 6.2 mi NW 11.5 mph - N/A   Scattered Clouds
7:50 PM 73.4 °F 51.8 °F 47% 29.92 in 6.2 mi NW 8.1 mph - N/A   Scattered Clouds
8:20 PM 73.4 °F 51.8 °F 47% 29.95 in 6.2 mi NW 8.1 mph - N/A   Scattered Clouds
8:50 PM 73.4 °F 51.8 °F 47% 29.95 in 6.2 mi NNW 6.9 mph - N/A   Mostly Cloudy
9:00 PM 73 °F 52 °F 36% 29.95 in 6 mi NNW 5.8 mph - -   Mostly Cloudy
9:20 PM 71.6 °F 51.8 °F 50% 29.95 in 6.2 mi WNW 6.9 mph - N/A   Mostly Cloudy
9:50 PM 71.6 °F 51.8 °F 50% 29.95 in 6.2 mi WNW 6.9 mph - N/A   Scattered Clouds
10:20 PM 71.6 °F 51.8 °F 50% 29.95 in 6.2 mi WNW 5.8 mph - N/A   Scattered Clouds
10:50 PM 71.6 °F 50.0 °F 46% 29.95 in 6.2 mi WNW 8.1 mph - N/A   Scattered Clouds
11:20 PM 71.6 °F 50.0 °F 46% 29.95 in 6.2 mi WNW 6.9 mph - N/A   Scattered Clouds
11:50 PM 71.6 °F 48.2 °F 43% 29.95 in - WNW 5.8 mph - N/A   Clear